Погода в Шарбакты

Казахстан     52°29′19″N   78°09′31″E
темп.,
°C
ветер,
м/с
пор.,
м/с
влажн.,
%
обл.,
%
осадки,
мм/ч
давл.,
гПа
погр.,
м
31 июля, сб
сб3100:00+16ю11455 0.0 101611
03:00+16ююв33441 0.0 101519
06:00+15ю454923 0.0 101570
09:00+22ю5733100 0.0 1015516
12:00+27ююз552485 0.0 10131907
15:00+29ююз572268 0.0 10123017
18:00+25зсз7933100 0.0 1011696
21:00+21ссз224486 0.0 101221
1 августа, вс
вс100:00+20юв11497 0.0 101111
03:00+19ююв345032 0.0 101144
06:00+20ю36449 0.0 1011138
09:00+25юз453469 0.0 1010493
12:00+29зсз453575 0.0 10101358
15:00+30сз553299 0.0 10092231
18:00+29ссз553446 0.0 10092387
21:00+24ссв335058 0.0 100828
2 августа, пн
пн200:00+21ссз22545 0.0 100816
03:00+20сз226032 0.0 100811
06:00+21з125940 0.0 100811
09:00+27юз33415 0.0 1007543
12:00+30зюз673230 0.0 10061804
15:00+32зсз683482 0.0 10052793
18:00+30сз693317 0.2 10062671
21:00+25с475019 0.0 1007226
3 августа, вт
вт300:00+23сз4850100 0.0 1008271
03:00+20зсз486080 0.0 1008130
06:00+18зсз486444 0.0 1009184
09:00+24сз57513 0.0 1010668
12:00+27сз674069 0.0 10102513
15:00+27ссз683414 0.0 10102433
18:00+27сз6733100 0.0 10102416
21:00+22ссз484695 0.0 1011198
4 августа, ср
ср400:00+20сз3552100 0.0 101176
03:00+20зсз355491 0.0 101196
06:00+19сз355896 0.0 1011107
09:00+20зсз2262100 0.2 1012171
12:00+20сз3361100 0.3 1011539
15:00+24ссз564199 0.0 10101317
18:00+25з563843 0.0 10091035
21:00+22ссз224961 0.0 101024